Location: Paris
(48.6709°N, 2.3750°E)
Time: 14:43:14
(UTC+02:00)

NOAA 18 - Pass Details

Date: 02 July 2022
Orbit: 839 x 860 km, 98.9° (Epoch: 13 August)

Event Time Altitude Azimuth Distance (km) Brightness Sun altitude
Exits shadow 00:38:38 - 215° (SW) 2,629 7.4 -16.3°
Reaches altitude 10° 00:39:09 10° 219° (SW) 2,479 7.3 -16.3°
Maximum altitude 00:43:21 22° 269° (W) 1,781 7.1 -16.5°
Drops below altitude 10° 00:47:37 10° 319° (NW) 2,502 8.7 -16.7°
Sets 00:50:34 0° 335° (NNW) 3,446 10.0 -16.9°
